RH
90 90 89 85 81 78 76 77 79 81 83 85 87 88 88 89 91 95 98 101 103 103 103 103 103 104 105 106 105 104 103 103 102 101 100 97 95 95 94 92 88 83 81 87 94 98 100 102 102 101 98 96 93 89 85 81 77 73 70 69 68 67 66
102 101 99 95 90 84 79 75 73 71 70 71 74 77 79 80 80 82 86 89 93 95 96 96 97 99 103 104 105 104 104 103 102 102 101 99 97 97 97 97 92 85 81 83 89 95 98 98 97 98 97 97 97 93 89 84 79 76 74 73 72 70 69
96 102 106 107 107 105 100 94 87 82 76 71 67 66 67 69 69 70 73 76 80 84 86 86 87 90 95 98 100 101 102 101 99 99 99 98 97 96 96 96 92 87 82 82 86 89 91 91 90 91 90 90 91 89 86 83 80 78 76 74 72 70 70
57 68 78 88 97 105 109 108 102 97 92 86 79 74 71 68 65 64 64 66 69 72 74 75 77 81 86 88 90 93 97 99 99 100 100 99 98 96 96 94 89 85 80 78 80 82 83 85 85 86 86 85 86 85 83 80 78 77 74 72 70 70 70
35 38 44 50 58 67 77 84 86 87 86 84 82 81 80 79 77 73 69 68 67 67 66 66 67 70 75 78 79 82 86 90 92 93 93 94 95 95 95 93 88 84 79 75 75 76 78 81 84 86 86 85 84 83 80 77 75 75 74 73 72 73 75
33 34 35 37 39 42 46 51 55 59 61 62 63 64 66 69 71 71 70 70 69 68 67 64 64 65 68 69 71 73 77 81 83 85 86 87 90 92 92 91 88 85 82 78 76 76 76 79 83 86 86 84 82 79 77 75 75 75 76 77 78 78 78
33 34 34 36 37 38 39 41 42 44 46 47 48 48 49 50 52 52 53 55 56 58 59 60 60 62 64 64 63 64 67 70 73 75 78 81 85 89 91 90 90 89 87 83 80 78 77 78 80 83 83 82 79 77 75 74 76 77 76 77 78 77 76
32 33 34 35 36 37 38 39 40 41 42 42 42 43 43 43 44 44 43 43 44 45 47 49 50 53 54 55 55 55 57 58 59 60 62 66 71 77 80 82 84 86 86 84 82 81 79 77 77 79 80 79 77 76 77 77 78 76 73 72 75 76 77
29 31 32 33 34 36 37 38 39 40 41 41 41 41 41 41 42 42 42 42 42 42 42 43 44 45 46 47 48 48 49 51 51 52 53 54 57 61 64 66 69 72 74 75 76 77 76 74 73 73 75 77 77 80 82 80 76 76 75 75 77 76 75
24 25 27 29 30 31 32 34 35 37 38 40 41 41 41 41 41 40 40 40 39 40 40 40 40 41 41 42 43 43 44 45 46 46 47 48 50 52 54 55 57 60 62 64 66 67 67 66 66 67 71 76 78 82 84 79 75 76 76 73 70 67 65
19 20 21 23 25 26 28 29 30 32 34 35 37 38 39 40 41 41 40 39 39 39 39 39 39 38 38 39 39 39 40 41 41 41 42 42 43 44 45 46 48 49 52 53 55 55 54 54 55 57 61 65 68 71 72 69 64 62 59 53 50 49 48
18 18 19 20 21 22 23 24 25 26 27 28 30 31 32 34 36 37 37 37 37 37 38 39 39 39 39 39 39 38 38 38 38 38 38 38 38 39 40 41 42 44 45 45 45 45 43 42 43 45 46 47 49 50 50 47 43 39 37 34 32 33 34
15 15 16 16 17 17 17 18 18 19 19 20 21 22 23 25 26 28 29 29 30 31 31 32 33 34 35 35 36 36 35 35 36 35 36 35 35 36 36 37 39 40 40 39 38 36 35 35 35 34 34 33 33 32 31 29 29 27 26 25 24 25 26
12 12 12 12 13 13 13 13 13 14 14 15 15 16 17 18 19 20 20 21 22 23 24 25 25 26 27 28 29 29 30 31 32 32 33 33 33 33 33 33 33 33 33 32 30 28 28 28 27 27 26 25 24 23 23 23 23 22 21 21 20 20 21
9 9 10 11 11 11 12 12 12 13 13 13 14 14 15 16 16 16 16 16 16 17 17 17 17 18 18 19 19 20 20 20 20 21 21 21 21 22 22 22 23 23 24 24 22 21 21 21 22 21 21 21 20 20 20 20 20 19 18 18 19 19 20
9 9 9 10 10 11 12 12 13 14 14 14 14 13 14 14 13 12 12 11 11 11 11 11 10 11 11 10 11 11 11 11 11 11 11 11 12 12 12 13 14 15 15 16 15 15 16 16 17 17 18 18 18 18 18 18 17 17 17 18 18 18 19
9 10 11 11 12 13 13 12 12 12 12 11 10 10 10 10 9 9 9 9 8 8 8 8 8 8 8 8 9 8 8 8 8 8 8 8 9 9 9 9 10 11 11 12 12 12 13 14 14 15 15 16 16 16 17 16 15 15 15 15 15 15 16
12 13 13 14 14 13 11 10 9 8 8 7 7 8 8 8 8 8 7 8 7 7 8 7 7 7 7 7 7 7 7 7 7 7 7 7 7 7 8 8 8 9 9 9 9 10 10 11 11 12 12 12 13 13 13 12 12 12 12 11 11 11 12
13 13 13 12 11 9 8 8 7 7 7 7 7 7 6 7 7 6 6 6 6 7 7 6 6 6 7 7 7 7 7 6 7 6 6 7 7 6 7 7 7 7 8 8 8 8 8 8 9 9 9 9 10 10 10 10 10 10 9 9 9 9 9
13 11 10 9 8 8 7 7 7 7 7 6 6 6 6 6 6 6 6 6 6 6 6 6 6 6 6 6 6 6 6 6 6 6 6 6 6 6 6 7 7 7 7 7 8 7 7 8 7 7 8 8 8 8 9 9 9 9 8 8 8 8 8
11 9 8 8 8 7 7 7 7 7 7 6 6 6 6 6 6 6 6 6 6 6 6 6 6 6 6 6 6 6 6 6 6 6 6 6 6 6 6 7 7 7 7 7 7 7 7 7 7 7 7 7 8 8 8 8 8 8 8 8 8 8 8
9 8 8 7 7 7 7 7 7 7 7 6 6 6 6 6 6 6 6 6 6 6 6 6 5 5 5 5 5 6 6 6 6 6 6 6 6 6 7 7 7 7 7 7 7 7 7 7 7 7 7 7 7 7 8 8 9 9 8 8 9 8 9
8 8 7 6 6 7 7 7 7 7 7 6 6 6 6 5 6 6 6 6 6 6 6 5 5 5 5 5 6 6 6 6 6 6 6 6 6 6 7 7 7 7 7 7 7 7 8 8 8 8 8 8 8 8 8 9 9 10 10 10 9 10 10
7 7 6 6 6 6 7 7 7 7 7 7 6 6 6 6 6 6 6 6 6 6 6 5 5 5 5 5 5 5 6 6 6 6 6 6 6 6 6 6 7 7 7 8 8 8 8 9 9 9 9 9 9 9 9 9 9 10 11 10 10 9 9
6 6 6 6 6 6 7 7 7 7 7 7 7 7 6 6 6 6 6 6 6 6 6 6 6 6 6 6 6 5 5 5 5 5 5 6 6 6 6 6 6 6 7 7 8 8 8 9 9 9 9 9 9 8 8 8 9 9 10 10 10 9 8
6 6 6 6 6 6 7 7 7 6 6 6 7 7 7 7 6 6 6 6 6 6 5 5 5 6 6 6 5 5 5 5 5 5 5 5 6 6 6 6 6 6 6 6 7 7 8 8 8 8 8 8 8 8 8 7 8 8 8 9 9 9 8
6 6 6 6 6 7 7 7 7 6 6 6 7 7 8 7 7 7 7 7 6 6 6 6 6 6 6 6 6 6 6 5 5 5 5 5 5 5 6 6 6 6 6 6 6 6 7 7 8 7 7 7 7 7 7 7 7 7 7 8 8 8 8
6 7 7 7 7 7 7 7 7 7 6 6 6 7 7 7 6 7 8 7 6 6 6 6 6 6 6 7 6 6 6 6 6 6 6 5 5 5 5 5 6 6 6 6 6 6 6 7 7 7 7 7 7 7 7 7 6 6 6 7 7 8 8
7 7 7 7 7 7 8 8 7 7 6 6 6 6 6 6 6 7 7 6 6 6 6 6 6 6 6 6 6 6 6 6 6 6 6 6 6 6 5 5 6 6 6 6 6 6 6 6 7 7 7 7 8 8 7 7 6 6 6 6 6 7 8
7 7 7 7 7 7 8 7 7 7 6 6 6 6 6 5 6 6 6 6 6 6 6 6 6 6 6 6 6 6 6 6 6 6 6 6 6 6 6 6 5 5 6 6 6 6 6 6 6 7 7 7 8 8 8 8 7 7 6 6 6 6 7
6 7 7 8 8 8 8 8 8 7 7 6 6 6 5 5 5 5 6 6 6 6 6 6 6 6 6 6 6 6 6 6 6 6 6 6 6 6 6 6 6 6 6 6 6 6 6 6 6 6 7 7 7 8 8 8 8 8 7 7 6 6 6
7 7 8 8 9 9 9 9 8 8 8 7 7 6 6 5 5 5 5 5 5 6 6 6 6 6 6 6 6 6 6 6 6 6 6 6 6 6 6 6 6 6 6 6 6 6 6 6 6 6 6 7 7 7 8 8 8 8 8 8 8 7 7
8 8 8 8 9 10 10 10 10 9 9 8 7 7 7 6 6 6 6 6 6 6 6 6 6 6 6 6 6 6 6 6 6 6 6 6 6 6 6 6 6 6 6 6 6 6 6 6 6 6 6 6 6 7 7 8 8 8 8 8 8 8 8
9 9 9 9 9 10 10 10 10 9 9 9 8 8 7 7 7 6 6 6 6 6 6 6 6 6 6 6 6 6 6 6 6 6 6 6 6 6 6 6 6 6 6 6 6 6 6 6 6 6 5 6 6 6 6 7 7 7 7 8 8 8 8
8 8 8 8 9 9 9 9 9 9 9 8 8 8 8 7 7 7 7 7 7 6 6 6 6 6 6 6 6 6 6 6 6 6 6 6 7 7 7 7 7 6 6 6 6 6 6 6 6 6 6 5 5 5 5 6 6 7 7 7 7 7 7
7 7 7 7 8 8 8 8 8 8 8 7 7 7 7 7 7 7 7 7 7 7 7 7 7 7 6 6 6 6 6 6 6 6 6 6 6 6 6 6 6 6 6 6 6 6 6 6 6 6 6 6 6 6 6 6 6 6 7 7 7 7 8
Wind_Speed
116 117 118 118 119 118 118 118 118 118 118 118 118 118 117 117 117 117 117 117 117 117 117 117 117 116 117 118 119 119 119 120 120 121 122 122 122 122 122 123 124 123 120 119 121 121 121 123 124 124 125 125 125 126 126 126 125 125 124 124 124 123 123
120 120 121 122 123 123 122 122 122 122 122 121 121 121 121 121 121 121 121 120 120 120 121 121 120 120 120 121 122 121 122 122 123 124 124 124 124 124 125 126 127 127 125 124 124 125 125 126 126 127 127 127 127 128 129 129 128 127 127 126 126 126 125
119 121 123 124 125 126 126 126 126 125 125 125 124 124 124 125 125 125 124 124 124 124 125 125 124 123 124 125 125 125 125 125 126 126 127 127 127 127 128 129 130 130 129 128 128 129 129 129 129 129 129 129 129 130 131 131 130 130 129 129 128 128 127
117 119 121 123 125 127 128 129 129 129 129 128 128 128 127 127 127 127 127 127 127 127 128 128 128 127 127 128 129 128 128 128 129 130 130 130 130 131 131 132 133 134 133 133 132 132 132 132 131 131 131 131 131 132 132 133 132 132 131 131 130 129 129
116 117 119 121 122 124 126 128 129 130 130 130 130 130 130 130 130 130 130 129 130 130 130 131 130 130 131 132 132 132 131 132 133 133 134 134 134 134 135 136 137 137 137 136 136 135 135 134 134 133 133 133 133 134 134 134 134 133 132 132 131 131 131
115 116 118 119 121 123 124 126 127 128 129 130 130 130 130 130 131 131 131 131 131 132 132 132 132 131 132 133 134 134 134 135 136 136 137 137 137 137 138 139 139 140 140 140 139 138 138 137 137 136 136 136 136 136 136 135 135 134 134 134 134 134 134
114 115 116 118 119 121 123 124 126 127 128 129 130 130 130 130 131 131 131 131 131 132 132 132 132 133 134 134 135 135 135 136 137 137 138 138 139 139 140 141 141 142 142 142 142 141 141 140 140 139 139 139 139 138 138 137 137 137 136 136 136 136 136
114 115 116 117 118 119 121 123 124 126 127 129 130 130 131 131 131 131 131 131 131 131 131 132 132 133 134 135 135 136 136 137 137 138 138 139 139 141 142 142 143 144 144 144 144 143 143 143 142 142 141 141 140 140 140 140 140 140 139 138 138 137 137
114 115 116 117 118 119 121 122 123 125 126 127 129 130 131 131 132 132 132 132 132 132 132 132 133 133 134 135 136 136 137 138 138 139 139 140 141 142 143 143 144 145 145 145 145 145 145 145 144 143 143 143 142 142 143 143 142 141 140 140 140 139 138
112 113 115 117 118 119 121 122 123 125 126 127 128 129 130 131 132 132 133 133 133 133 134 134 134 134 135 136 136 137 138 139 139 140 140 141 142 143 144 144 145 145 146 146 146 146 146 146 145 145 145 145 145 145 146 145 144 143 143 143 142 140 139
109 110 112 114 116 118 119 121 122 124 125 126 127 128 129 130 131 132 133 133 133 134 134 135 135 135 136 136 137 138 138 139 140 140 141 141 142 143 143 144 145 145 146 147 147 147 147 147 146 146 146 147 147 147 147 147 146 145 144 143 141 140 139
107 108 110 111 113 114 116 118 119 120 122 123 124 125 126 127 129 130 131 132 133 133 134 134 135 136 136 137 138 138 139 139 140 141 141 142 142 143 143 143 144 144 145 146 146 146 146 146 146 146 147 147 147 147 148 147 146 145 144 142 141 140 139
106 107 108 109 110 111 112 113 114 115 117 118 119 120 121 122 124 126 127 128 129 130 131 132 133 134 135 136 137 138 138 139 140 140 141 142 142 142 142 142 143 143 144 145 145 145 144 144 145 145 145 145 145 146 146 145 144 143 143 141 140 139 138
103 104 104 105 106 107 108 108 109 110 112 113 114 114 115 116 118 120 121 123 124 125 127 128 129 130 131 132 133 134 136 137 138 138 139 140 140 141 141 141 141 142 142 143 143 143 142 142 143 143 143 143 143 143 142 142 142 142 141 139 138 137 136
99 100 100 101 102 103 104 105 105 107 107 108 109 110 110 112 113 115 116 117 118 119 121 122 123 124 125 127 128 129 131 132 133 134 135 136 136 137 137 138 138 139 139 140 140 140 139 139 140 140 140 140 139 139 139 139 139 139 138 136 135 134 133
96 96 97 97 98 99 100 101 102 103 104 105 106 106 107 108 109 110 111 112 112 113 114 115 116 117 118 119 121 122 123 125 126 127 128 128 129 130 131 131 132 133 135 135 135 135 135 135 135 136 136 136 136 135 135 135 135 134 133 132 131 130 129
93 93 94 95 95 96 98 98 99 100 100 101 102 102 102 103 104 105 106 106 107 107 108 108 109 110 111 112 114 115 116 117 118 119 120 121 122 123 123 124 125 127 128 129 129 129 129 129 130 130 131 130 130 130 131 131 130 128 128 128 127 125 125
89 90 90 91 92 93 94 95 95 95 95 95 96 96 96 97 99 100 100 100 101 102 102 104 104 105 105 106 108 109 110 112 113 113 113 114 115 115 116 117 118 120 121 121 122 123 123 123 124 124 125 125 125 125 125 125 124 124 124 123 122 121 120
86 86 87 88 89 90 91 91 91 91 91 92 92 92 92 93 94 95 95 95 96 97 99 100 100 101 101 102 103 104 106 107 107 108 108 108 109 109 109 110 111 112 113 114 115 115 116 116 117 117 118 118 118 118 118 118 118 118 118 117 116 115 114
83 83 84 85 86 87 87 88 88 89 89 89 89 90 90 90 91 91 91 92 93 95 95 96 97 97 98 98 99 100 101 102 103 103 103 103 104 104 104 105 106 106 107 108 109 109 110 110 110 110 110 110 111 111 111 111 112 112 111 110 110 108 107
81 82 83 83 84 85 85 85 86 86 86 86 86 86 86 87 87 88 88 89 91 92 93 93 94 95 95 95 95 96 97 98 99 99 99 100 100 99 100 101 103 103 103 104 104 104 105 105 106 106 106 105 105 105 105 105 106 107 106 106 105 104 103
80 81 82 82 82 82 82 83 83 84 84 84 83 83 83 83 84 84 85 86 88 89 90 90 91 91 91 91 91 92 92 93 94 95 95 96 96 95 96 98 99 99 100 100 100 100 101 101 102 102 102 102 102 102 102 101 102 103 104 103 102 101 100
78 79 80 79 79 79 79 80 81 81 82 81 81 81 81 81 81 81 82 84 85 86 87 87 87 87 88 88 87 88 88 89 90 90 91 92 92 92 93 93 94 95 96 96 96 96 96 97 98 98 99 99 99 99 99 98 98 99 100 100 99 98 97
75 76 77 77 76 76 76 77 78 78 78 78 78 79 79 79 79 79 80 81 82 83 84 84 84 84 84 85 85 85 85 86 86 87 88 89 89 90 90 90 90 91 91 92 93 93 93 93 94 95 95 96 97 97 96 95 94 94 96 97 97 96 95
71 73 73 73 73 73 73 74 75 75 75 75 75 75 76 77 77 77 78 79 79 80 81 81 81 82 82 83 84 84 84 84 84 85 85 85 86 87 87 88 88 88 88 88 89 90 90 91 91 92 93 94 95 95 94 92 92 92 93 95 95 95 95
68 69 70 70 70 70 71 71 72 73 72 71 71 72 73 75 75 75 76 77 78 78 78 78 79 80 81 82 83 83 83 83 83 84 84 84 84 85 85 86 86 86 86 86 86 87 88 89 89 90 91 92 92 92 92 91 91 90 91 92 93 94 93
66 67 68 68 68 68 69 70 71 71 69 69 68 69 70 73 73 72 74 76 77 77 76 76 77 78 79 80 81 81 82 82 82 83 83 83 83 83 84 84 84 84 85 84 84 84 85 86 87 88 89 90 90 90 90 90 90 89 88 89 90 90 91
63 64 65 66 66 67 67 68 69 69 68 67 67 66 69 71 69 68 71 74 75 74 74 74 75 76 76 77 79 80 80 81 81 82 82 82 82 82 82 82 82 83 83 82 82 82 82 83 84 85 86 87 88 88 88 88 88 87 87 87 87 87 87
60 61 63 64 64 64 65 66 67 66 65 65 65 65 67 67 66 66 69 71 71 71 72 72 72 73 74 74 75 77 78 79 79 80 80 81 81 81 81 81 81 81 81 81 80 80 80 81 82 82 83 85 86 86 87 88 87 87 86 85 84 84 84
58 59 60 61 61 61 62 63 64 64 64 64 63 64 64 64 63 64 67 68 68 68 69 70 70 71 71 72 73 74 75 76 77 78 78 79 79 79 80 80 80 79 79 79 79 79 79 79 80 80 81 82 83 84 86 86 87 86 85 84 83 82 83
57 57 57 58 59 60 60 61 62 63 63 63 63 64 64 62 62 63 64 65 65 66 66 67 68 68 69 70 70 71 72 73 74 75 76 77 77 77 78 78 78 78 78 78 78 77 77 77 78 78 78 79 80 81 82 84 85 85 84 83 83 82 82
56 56 56 56 57 58 59 60 61 62 63 63 63 64 64 63 62 62 63 63 64 64 65 65 66 66 67 68 68 68 69 70 71 72 73 74 74 75 75 75 75 76 76 76 76 76 76 76 76 76 76 77 77 78 79 80 81 82 82 83 82 82 82
55 55 55 54 55 56 57 58 60 61 62 63 63 63 64 64 63 63 63 63 63 63 64 64 64 65 66 66 66 67 67 68 69 69 70 71 72 72 73 73 73 73 74 74 74 74 74 74 73 73 73 74 74 75 75 76 77 78 79 80 80 80 80
52 53 53 53 53 54 55 56 57 59 60 62 62 62 63 63 63 63 63 64 64 63 63 63 63 63 64 64 65 65 66 66 66 67 68 69 69 70 71 71 71 71 71 71 72 72 72 72 71 71 70 70 70 71 71 71 72 74 75 75 76 76 78
49 50 51 51 51 52 53 54 55 56 58 60 61 61 61 61 62 62 62 62 63 63 63 63 63 62 62 62 63 63 64 64 64 64 65 65 66 67 67 68 69 69 69 69 69 69 69 69 69 69 69 69 69 68 68 68 69 70 71 72 73 73 75
49 49 49 50 50 51 52 52 53 54 55 56 58 59 59 59 59 60 60 60 61 61 62 63 63 62 62 61 61 61 61 62 62 62 62 63 63 63 64 64 65 66 66 66 66 66 66 66 66 66 67 67 67 67 67 66 66 66 67 68 70 71 72
Wind_Direction
259 259 260 260 260 260 260 260 260 260 260 260 260 260 260 260 260 260 260 260 260 261 261 261 261 261 262 262 262 262 263 263 263 263 264 264 264 264 265 265 265 264 263 263 263 263 263 263 263 264 265 265 266 266 266 267 267 267 267 267 268 268 268
259 259 259 260 260 261 261 260 260 260 260 260 260 260 260 260 260 260 260 260 260 261 261 261 261 261 262 262 262 262 263 263 263 263 264 264 264 264 265 265 265 265 264 264 263 263 263 263 263 264 264 265 265 266 266 267 267 267 268 268 268 268 268
260 260 260 261 262 262 263 263 263 263 262 262 262 262 261 261 261 261 261 261 261 261 261 261 261 262 262 262 262 263 263 263 264 264 264 265 265 265 265 265 265 265 265 264 264 264 264 264 264 264 264 265 265 266 266 267 267 267 267 267 268 268 268
261 261 261 261 262 262 263 264 264 264 264 264 264 264 264 264 263 263 263 262 262 262 262 262 262 262 262 263 263 263 263 264 264 264 265 265 265 265 265 265 265 265 265 265 265 265 265 265 265 265 265 265 266 266 266 267 267 267 268 268 268 268 268
261 261 261 261 261 262 262 263 264 264 264 265 265 265 265 265 265 265 265 264 264 264 263 263 263 263 263 263 263 263 263 264 264 264 264 264 265 265 265 265 266 266 266 266 266 266 266 266 266 266 266 266 266 267 267 267 267 268 268 269 269 269 269
262 261 261 261 261 261 262 262 263 263 264 264 264 264 264 264 265 265 265 265 265 265 265 265 265 264 264 264 264 264 264 264 264 264 264 264 264 264 265 265 266 266 266 267 267 267 267 267 267 267 267 267 267 267 268 268 268 269 269 269 269 269 269
263 263 262 262 262 262 262 262 262 263 263 263 264 264 264 264 264 264 264 264 264 264 265 265 265 265 265 265 265 265 265 265 265 265 265 265 265 265 265 265 265 266 266 267 267 267 267 267 267 267 267 268 268 268 268 269 269 269 269 269 269 269 269
264 264 264 263 263 263 263 263 263 263 263 263 264 264 264 264 264 264 264 264 264 264 264 264 265 265 265 265 265 265 265 265 266 266 266 265 265 265 265 265 266 266 266 267 267 267 267 268 268 268 268 268 268 269 269 269 269 269 269 269 270 270 270
264 264 264 264 264 264 264 264 264 264 264 264 264 264 264 264 265 265 265 265 265 265 265 264 264 264 265 265 265 265 265 266 266 266 266 266 266 266 266 266 266 266 266 267 267 267 268 268 268 268 269 269 269 269 269 269 269 270 270 270 270 270 271
264 263 263 263 264 264 264 264 264 264 264 264 264 264 264 265 265 265 265 265 265 265 265 265 265 265 265 265 265 265 265 265 265 266 266 266 266 266 266 266 266 266 267 267 267 267 268 268 268 269 269 269 269 269 269 270 270 270 270 270 270 271 271
265 264 264 263 263 263 264 264 264 264 264 264 264 264 264 264 265 265 265 265 265 265 265 265 265 265 265 265 265 265 265 265 265 265 266 266 266 266 266 266 266 266 267 267 267 267 267 268 268 268 268 268 269 269 269 269 269 269 269 270 270 270 270
267 266 266 265 265 264 264 264 264 264 263 263 263 263 263 264 264 264 264 265 265 265 265 265 265 265 265 265 265 265 265 266 266 266 266 266 266 266 266 266 266 266 266 266 266 267 267 267 267 268 268 268 268 268 268 268 269 269 269 270 270 270 270
268 268 267 267 267 266 266 265 265 264 264 264 263 263 263 263 263 263 263 263 264 264 264 264 264 264 264 264 265 265 265 265 266 266 266 266 266 266 266 266 266 266 266 266 266 266 266 267 267 267 267 267 268 268 268 269 269 270 270 270 270 270 271
269 269 269 268 268 267 267 266 266 266 265 265 264 264 264 263 263 263 263 263 263 263 263 264 264 264 264 264 264 264 264 265 265 265 265 265 266 266 266 266 266 266 266 266 266 266 266 267 267 267 267 268 268 268 269 269 270 270 270 271 271 271 271
271 270 270 269 269 268 268 267 267 266 266 266 265 265 265 265 264 264 264 264 263 263 263 264 264 264 264 264 264 264 264 264 264 264 264 264 264 265 265 265 265 265 265 266 266 266 267 267 267 267 268 268 268 269 269 270 270 270 270 271 271 271 271
271 271 270 270 269 269 268 268 267 267 267 267 266 266 266 266 266 266 265 265 265 265 265 264 264 264 264 264 264 264 264 264 264 263 264 264 264 264 264 264 264 264 264 265 265 266 266 266 267 267 267 268 268 268 269 269 269 269 270 270 270 270 270
271 270 270 270 270 269 269 268 268 268 268 268 268 268 268 267 267 267 267 267 266 266 266 265 265 265 265 265 264 264 264 264 264 264 264 264 264 264 264 264 264 264 264 264 265 265 265 266 266 266 266 267 267 267 268 268 268 269 269 269 269 269 269
271 270 270 270 270 270 270 270 270 269 269 269 269 268 268 268 267 267 267 267 267 267 267 266 266 265 265 265 265 265 265 265 265 265 264 264 264 264 264 264 264 264 264 265 265 265 265 265 265 266 266 266 266 267 267 268 268 268 268 268 268 269 268
271 271 271 271 270 270 271 271 271 271 270 270 269 269 269 268 268 268 268 268 268 267 267 267 266 266 266 265 265 265 265 265 265 265 265 265 265 265 265 265 265 265 265 265 265 265 265 265 265 265 266 266 266 266 267 267 267 267 267 268 268 267 267
273 272 272 272 272 271 271 271 271 271 271 270 270 270 270 270 270 270 269 269 269 268 268 268 267 267 267 266 266 266 266 266 266 266 266 266 266 266 266 266 266 266 265 265 265 266 266 266 266 266 266 266 266 266 266 266 267 267 267 267 267 267 267
275 274 274 273 273 272 272 272 272 272 271 271 271 270 270 270 269 269 269 269 269 269 268 268 268 268 267 267 267 267 267 267 267 268 268 267 267 267 267 267 266 266 266 266 266 266 266 266 266 266 266 266 265 266 266 266 266 266 266 266 266 266 266
275 275 274 274 274 273 273 273 273 273 272 272 272 272 271 271 270 270 270 270 269 269 269 268 268 268 268 268 268 267 268 268 268 268 267 267 267 267 266 266 266 266 266 266 266 266 266 266 266 266 266 266 266 265 265 265 266 266 267 267 267 267 267
275 275 274 274 274 273 273 273 273 273 273 273 273 273 272 272 271 271 271 271 270 270 270 270 270 270 270 269 269 269 268 268 267 267 267 266 266 266 265 265 265 265 265 265 265 265 265 265 266 266 266 266 266 265 265 265 265 266 267 267 267 267 266
275 275 274 274 274 273 273 273 273 273 273 273 273 273 273 273 273 272 272 272 272 272 272 272 272 272 272 271 270 270 269 268 267 267 267 266 266 266 265 265 264 264 264 265 265 265 265 265 265 265 265 265 265 265 265 265 265 265 266 266 266 266 265
275 275 275 275 274 274 273 272 272 272 273 273 274 274 274 274 274 274 274 273 273 273 273 273 273 273 273 272 272 271 270 270 269 269 268 268 267 267 267 267 266 265 265 265 265 265 265 265 265 265 265 265 265 265 265 265 264 264 264 265 265 266 266
278 277 277 276 276 275 275 274 274 273 274 274 274 275 275 275 275 275 275 275 274 274 274 273 273 273 273 273 273 272 272 272 271 271 270 269 269 269 268 268 268 267 267 266 265 265 266 266 266 265 265 265 265 265 265 265 264 264 264 264 265 266 266
279 279 279 279 278 277 277 276 276 276 276 276 275 275 275 274 274 275 275 275 274 274 274 274 274 273 273 273 273 273 273 272 272 271 271 270 270 269 269 269 268 268 268 268 267 267 266 266 267 267 267 267 266 266 266 266 265 265 264 264 264 265 266
279 279 279 278 278 278 278 278 277 277 277 277 276 275 274 273 274 274 274 274 274 274 274 274 273 273 273 273 273 273 273 273 272 272 272 272 271 270 270 269 269 269 268 268 268 268 267 267 267 267 267 268 268 268 268 267 267 266 265 265 265 265 265
279 279 278 278 278 278 278 278 278 278 278 277 276 275 274 274 275 275 274 274 275 275 275 274 274 273 273 273 273 273 273 273 273 272 272 272 272 271 271 270 270 270 269 269 268 268 268 267 267 267 267 268 268 268 269 268 268 267 267 266 265 265 264
280 280 280 280 280 280 280 280 281 280 280 279 278 277 276 276 276 275 275 275 275 275 275 275 275 274 274 273 273 273 272 272 272 273 273 272 272 272 272 272 271 271 270 270 269 269 268 268 267 267 267 267 268 268 268 269 269 269 268 268 267 266 265
283 283 283 283 283 284 284 284 283 283 283 282 282 281 280 279 279 278 277 277 277 277 277 276 276 276 275 275 274 274 274 273 273 273 273 273 273 273 273 273 273 273 272 272 271 271 270 269 269 268 268 267 267 267 267 268 269 269 269 269 269 268 267
285 285 285 285 285 285 286 286 286 285 285 285 284 284 284 283 283 282 281 281 281 280 280 279 278 278 277 276 276 275 275 275 275 274 274 274 274 274 274 274 273 274 273 273 273 272 271 270 270 270 269 269 268 267 267 267 268 268 269 269 269 268 268
286 286 286 286 286 286 286 286 286 286 286 286 286 286 286 286 286 285 284 284 283 282 281 281 280 280 279 279 278 277 276 276 276 276 276 276 275 275 275 275 275 274 274 274 274 273 273 272 271 270 269 268 268 267 267 267 267 267 267 267 268 268 267
285 286 286 287 286 286 285 285 285 285 286 286 287 287 287 287 287 287 286 286 285 284 283 282 281 280 280 280 279 279 278 278 277 277 277 277 277 277 277 277 276 276 275 275 274 274 274 274 273 272 271 269 268 268 267 267 267 266 267 267 267 267 267
286 286 286 286 286 285 285 285 285 285 285 286 286 286 286 286 286 286 286 286 286 286 285 285 284 283 282 281 281 280 280 280 279 278 278 277 277 277 277 277 276 276 276 275 275 275 274 274 274 274 273 273 272 270 269 268 267 267 267 267 267 266 266
290 289 289 288 288 287 287 286 286 285 285 285 285 286 286 286 285 285 285 285 285 286 286 286 286 286 285 285 284 283 283 282 282 281 280 279 278 277 277 276 276 276 276 275 275 274 274 274 273 273 273 273 273 272 271 270 268 267 266 266 266 266 265